Weather History for Oakes, ND

Change the Weather History Date:

Friday, September 13, 2013

  Actual Average (KABR) Record (KABR)
Temperature  
Mean Temperature 60 °F 60 °F  
Max Temperature 75 °F 73 °F 97 °F (1927)
Min Temperature 44 °F 47 °F 26 °F (1902)
Degree Days  
Heating Degree Days 6 6  
Month to date heating degree days 60  
Since 1 July heating degree days 111  
Cooling Degree Days 0 1  
Month to date cooling degree days 29  
Year to date cooling degree days 512  
Growing Degree Days 10 (Base 50)    
Moisture  
Dew Point 50 °F    
Average Humidity 76    
Maximum Humidity 100    
Minimum Humidity 38    
Precipitation  
Precipitation 0.00 in 0.07 in 2.00 in (1896)
Month to date precipitation 0.98  
Year to date precipitation 17.27  
Sea Level Pressure  
Sea Level Pressure 30.13 in    
Wind  
Wind Speed - (North)    
Max Wind Speed -    
Max Gust Speed -    
Visibility 10 miles    
Events      
T = Trace of Precipitation, MM = Missing Value Source: NWS Daily Summary

Daily Weather History Graph

Daily Weather History Graph

Search for Another Location

Airport:

Trip Planner

Search our weather history database for the weather conditions in past years. The results will help you decide how hot, cold, wet, or windy it might be!

Date:

Astronomy

Sep. 13, 2013 Rise Set
Actual Time 7:08 AM CDT 7:47 PM CDT
Civil Twilight 6:38 AM CDT 8:17 PM CDT
Nautical Twilight 6:02 AM CDT 8:53 PM CDT
Astronomical Twilight 5:24 AM CDT 9:30 PM CDT
Moon 3:52 PM CDT (9/13) 12:24 AM CDT (9/13)
Length of Visible Light 13h 39m
Length of Day
12h 38m
First Quarter, 61% of the Moon is Illuminated
Sep 13
First Quarter
Sep 19
Full
Sep 26
Last Quarter
Oct 4
New
Oct 11
First Quarter

Hourly Weather History & Observations

Time (CDT) Temp. Dew Point Humidity Pressure Visibility Wind Dir Wind Speed Gust Speed Precip Events Conditions
12:15 AM 50.0 °F 50.0 °F 100% 30.24 in 10.0 mi North - - N/A   Unknown
12:35 AM 50.0 °F 50.0 °F 100% 30.24 in 10.0 mi North - - N/A   Unknown
12:55 AM 50.0 °F 50.0 °F 100% 30.24 in 10.0 mi North - - N/A   Unknown
1:15 AM 50.0 °F 50.0 °F 100% 30.24 in 10.0 mi North - - N/A   Unknown
1:35 AM 50.0 °F 50.0 °F 100% 30.24 in 10.0 mi North - - N/A   Unknown
1:55 AM 48.2 °F 48.2 °F 100% 30.24 in 10.0 mi North - - N/A   Unknown
2:15 AM 50.0 °F 50.0 °F 100% 30.24 in 10.0 mi North - - N/A   Unknown
2:35 AM 50.0 °F 50.0 °F 100% 30.24 in 10.0 mi North - - N/A   Unknown
2:55 AM 48.2 °F 48.2 °F 100% 30.24 in 10.0 mi North - - N/A   Unknown
3:15 AM 48.2 °F 48.2 °F 100% 30.23 in 10.0 mi North - - N/A   Unknown
3:35 AM 48.2 °F 48.2 °F 100% 30.23 in 10.0 mi North - - N/A   Unknown
3:55 AM 48.2 °F 48.2 °F 100% 30.23 in 10.0 mi North - - N/A   Unknown
4:15 AM 48.2 °F 48.2 °F 100% 30.23 in 10.0 mi North - - N/A   Unknown
4:35 AM 48.2 °F 48.2 °F 100% 30.23 in 10.0 mi North - - N/A   Unknown
4:55 AM 46.4 °F 46.4 °F 100% 30.24 in 10.0 mi North - - N/A   Unknown
5:15 AM 46.4 °F 46.4 °F 100% 30.23 in 10.0 mi North - - N/A   Unknown
5:35 AM 46.4 °F 46.4 °F 100% 30.23 in 6.0 mi North - - N/A   Mist
5:55 AM 46.4 °F 46.4 °F 100% 30.23 in 10.0 mi North - - N/A   Unknown
6:15 AM 46.4 °F 46.4 °F 100% 30.23 in 10.0 mi North - - N/A   Unknown
6:35 AM 44.6 °F 44.6 °F 100% 30.22 in 10.0 mi North - - N/A   Unknown
6:55 AM 44.6 °F 44.6 °F 100% 30.22 in 9.0 mi North - - N/A   Unknown
7:15 AM 44.6 °F 44.6 °F 100% 30.22 in 9.0 mi North - - N/A   Unknown
7:35 AM 44.6 °F 44.6 °F 100% 30.22 in 7.0 mi North - - N/A   Unknown
7:55 AM 46.4 °F 46.4 °F 100% 30.22 in 9.0 mi North - - N/A   Unknown
8:15 AM 50.0 °F 50.0 °F 100% 30.22 in 9.0 mi North - - N/A   Unknown
8:35 AM 51.8 °F 51.8 °F 100% 30.21 in 10.0 mi North - - N/A   Unknown
8:55 AM 53.6 °F 53.6 °F 100% 30.21 in 10.0 mi North - - N/A   Unknown
9:15 AM 55.4 °F 55.4 °F 100% 30.21 in 10.0 mi North - - N/A   Unknown
9:35 AM 59.0 °F 55.4 °F 88% 30.20 in 10.0 mi North - - N/A   Unknown
9:55 AM 59.0 °F 53.6 °F 82% 30.21 in 10.0 mi North - - N/A   Unknown
10:15 AM 62.6 °F 53.6 °F 72% 30.20 in 10.0 mi North - - N/A   Unknown
10:35 AM 62.6 °F 51.8 °F 68% 30.20 in 10.0 mi North - - N/A   Unknown
10:55 AM 64.4 °F 51.8 °F 64% 30.20 in 10.0 mi North - - N/A   Unknown
11:15 AM 66.2 °F 53.6 °F 64% 30.19 in 10.0 mi North - - N/A   Unknown
11:35 AM 68.0 °F 51.8 °F 56% 30.18 in 10.0 mi North - - N/A   Unknown
11:55 AM 68.0 °F 51.8 °F 56% 30.17 in 10.0 mi North - - N/A   Unknown
12:15 PM 69.8 °F 50.0 °F 49% 30.16 in 10.0 mi North - - N/A   Unknown
12:35 PM 71.6 °F 51.8 °F 50% 30.15 in 10.0 mi North - - N/A   Unknown
12:55 PM 71.6 °F 51.8 °F 50% 30.15 in 10.0 mi North - - N/A   Unknown
1:15 PM 71.6 °F 51.8 °F 50% 30.14 in 10.0 mi North - - N/A   Unknown
1:35 PM 73.4 °F 50.0 °F 44% 30.13 in 10.0 mi North - - N/A   Unknown
1:55 PM 73.4 °F 50.0 °F 44% 30.12 in 10.0 mi North - - N/A   Unknown
2:15 PM 73.4 °F 50.0 °F 44% 30.11 in 10.0 mi North - - N/A   Unknown
2:35 PM 73.4 °F 50.0 °F 44% 30.10 in 10.0 mi North - - N/A   Unknown
2:55 PM 75.2 °F 50.0 °F 41% 30.09 in 10.0 mi North - - N/A   Unknown
3:15 PM 75.2 °F 50.0 °F 41% 30.08 in 10.0 mi North - - N/A   Unknown
3:35 PM 75.2 °F 50.0 °F 41% 30.07 in 10.0 mi North - - N/A   Unknown
3:55 PM 75.2 °F 48.2 °F 38% 30.07 in 10.0 mi North - - N/A   Unknown
4:15 PM 75.2 °F 50.0 °F 41% 30.06 in 10.0 mi North - - N/A   Unknown
4:35 PM 75.2 °F 50.0 °F 41% 30.05 in 10.0 mi North - - N/A   Unknown
4:55 PM 75.2 °F 48.2 °F 38% 30.05 in 10.0 mi North - - N/A   Unknown
5:15 PM 75.2 °F 50.0 °F 41% 30.04 in 10.0 mi North - - N/A   Unknown
5:35 PM 75.2 °F 48.2 °F 38% 30.03 in 10.0 mi North - - N/A   Unknown
5:55 PM 75.2 °F 48.2 °F 38% 30.03 in 10.0 mi North - - N/A   Unknown
6:15 PM 75.2 °F 50.0 °F 41% 30.02 in 10.0 mi North - - N/A   Unknown
6:35 PM 73.4 °F 50.0 °F 44% 30.01 in 10.0 mi North - - N/A   Unknown
6:55 PM 71.6 °F 50.0 °F 46% 30.00 in 10.0 mi North - - N/A   Unknown
7:15 PM 68.0 °F 53.6 °F 60% 30.00 in 10.0 mi North - - N/A   Unknown
7:35 PM 62.6 °F 53.6 °F 72% 29.99 in 10.0 mi North - - N/A   Unknown
7:55 PM 60.8 °F 55.4 °F 82% 29.99 in 10.0 mi North - - N/A   Unknown
8:15 PM 59.0 °F 53.6 °F 82% 29.99 in 10.0 mi North - - N/A   Unknown
8:35 PM 57.2 °F 53.6 °F 88% 29.99 in 10.0 mi North - - N/A   Unknown
8:55 PM 57.2 °F 53.6 °F 88% 29.99 in 10.0 mi North - - N/A   Unknown
9:15 PM 57.2 °F 53.6 °F 88% 29.98 in 10.0 mi North - - N/A   Unknown
9:35 PM 57.2 °F 53.6 °F 88% 29.98 in 10.0 mi North - - N/A   Unknown
9:55 PM 57.2 °F 53.6 °F 88% 29.97 in 10.0 mi North - - N/A   Unknown
10:15 PM 55.4 °F 53.6 °F 94% 29.97 in 10.0 mi North - - N/A   Unknown
10:35 PM 55.4 °F 53.6 °F 94% 29.97 in 10.0 mi North - - N/A   Unknown
10:55 PM 57.2 °F 51.8 °F 82% 29.96 in 10.0 mi North - - N/A   Unknown
11:15 PM 57.2 °F 51.8 °F 82% 29.96 in 10.0 mi North - - N/A   Unknown
11:35 PM 57.2 °F 51.8 °F 82% 29.96 in 10.0 mi North - - N/A   Unknown
11:55 PM 57.2 °F 51.8 °F 82% 29.96 in 10.0 mi North - - N/A   Unknown